Regional Weather Roundup
Issued by NWS

Home | Current Version | Previous Version | Text Only | Print | Product List | Glossary On
Versions: 1 2 3 4 5 6 7 8 9 10 11 12 13 14 15 16 17 18 19 20 21 22 23 24 25 26 27 28 29 30 31 32 33 34 35 36 37 38 39 40 41 42 43 44 45 46 47 48 49 50
000
ASUS46 KSTO 231304
RWRCA

NORTHERN AND CENTRAL CA REGIONAL WEATHER ROUNDUP
NATIONAL WEATHER SERVICE SACRAMENTO CA
600 AM PDT SAT MAY 23 2015

NOTE: FAIR INDICATES FEW OR NO CLOUDS BELOW 12,000 FEET WITH NO
SIGNIFICANT WEATHER AND/OR OBSTRUCTIONS TO VISIBILITY.

CAZ001-003-231400-
NORTHWEST AREA

CITY           SKY/WX    TMP DP  RH WIND       PRES   REMARKS
CRESCENT CITY  CLOUDY    52  51  97 CALM      30.14S FOG
UKIAH          CLOUDY    56  49  77 CALM      30.04S
$$

CAZ006-505>513-231400-
BAY AREA

CITY           SKY/WX    TMP DP  RH WIND       PRES   REMARKS
SANTA ROSA     CLOUDY    53  50  89 S5        30.03R
SAN RAFAEL     N/A       53  MM  MM MISG
NAPA           CLOUDY    53  50  89 W5        30.04S
CONCORD        CLOUDY    55  50  83 S12       30.05R
OAKLAND CITY   N/A       55  MM  MM MISG
OAKLAND        CLOUDY    53  50  89 SW13G18   30.07S
SAN FRAN CITY  N/A       52  MM  95 MISG
SAN FRAN ARPT  CLOUDY    54  49  83 W14       30.07S
LIVERMORE      CLOUDY    57  50  77 SW8       30.06R
HAYWARD        CLOUDY    54  51  90 W8        30.07S
REDWOOD CITY   N/A       MM  MM  MM MISG
MOFFETT ARPT   CLOUDY    57  50  77 W8        30.08S
SAN JOSE ARPT  CLOUDY    57  48  72 S6        30.08R
$$
CAZ034-037-514>518-231400-
CENTRAL COAST

CITY           SKY/WX    TMP DP  RH WIND       PRES   REMARKS
WATSONVILLE    CLOUDY    55  51  86 SW5       30.10R
SALINAS        CLOUDY    55  51  86 W6        30.10S
MONTEREY       CLOUDY    54  52  93 SW5       30.11S
SAN LUIS OBISP CLOUDY    56  50  80 W3        30.09S
SANTA MARIA    CLOUDY    57  52  83 W8        30.10S
$$
CAZ015-016-231400-
NORTHERN SACRAMENTO VALLEY

CITY           SKY/WX    TMP DP  RH WIND       PRES   REMARKS
REDDING        CLOUDY    61  51  70 S8        30.02R
RED BLUFF      MOCLDY    57  51  80 CALM      30.03R
OROVILLE       PTCLDY    57  51  80 SE7       30.05R
$$
CAZ016>018-231400-
SOUTHERN SACRAMENTO VALLEY

CITY           SKY/WX    TMP DP  RH WIND       PRES   REMARKS
AUBURN         MOCLDY    54  50  87 CALM      30.04S
BEALE AFB      CLOUDY    57  51  80 S10       30.01R
LINCOLN        CLOUDY    55  48  76 S6        30.03R
MARYSVILLE     CLOUDY    57  50  77 S13       30.03R
SAC INTL ARPT  PTCLDY    55  51  86 S12       30.02R
MATHER AIRPORT MOCLDY    52  50  93 S3        30.04R
DOWNTOWN SAC   N/A       55  MM  MM MISG
SAC EXEC ARPT  PTCLDY    57  51  80 S9G16     30.04R
VACAVILLE      CLEAR     55  50  83 SW7       30.03R
TRAVIS AFB     CLOUDY    55  51  86 SW13      30.01S
$$
CAZ019>021-231400-
SAN JOAQUIN VALLEY

CITY           SKY/WX    TMP DP  RH WIND       PRES   REMARKS
STOCKTON       MOCLDY    56  50  80 W7        30.04R
MODESTO        CLOUDY    57  50  77 CALM      30.04R
MERCED         PTCLDY    53  47  79 CALM      30.04S
LEMOORE        MOCLDY    55  47  74 NW7       30.05R
FRESNO         CLOUDY    58  50  75 NW5       30.04S
HANFORD        CLOUDY    58  52  80 CALM      30.04R
PORTERVILLE      N/A    N/A N/A N/A MISG        N/A
BAKERSFIELD    MOCLDY    59  48  67 N8        30.04R
$$
CAZ011-012-071-231400-
NORTHERN MOUNTAINS

CITY           SKY/WX    TMP DP  RH WIND       PRES   REMARKS
YREKA          CLEAR     36  34  92 NE7       30.11R WCI  30
MOUNT SHASTA   CLEAR     45  40  82 NW8       30.07R
ALTURAS        CLOUDY    47  43  86 W6        30.06R
$$
CAZ011-012-071-231400-
SIERRA NEVADA MTNS

CITY           SKY/WX    TMP DP  RH WIND       PRES   REMARKS
BLUE CANYON    CLOUDY    46  43  89 S5        30.09S FOG
TRUCKEE        DRIZZLE   43  41  93 CALM      30.08S
TAHOE VLY ARPT CLOUDY    45  41  86 CALM      30.07S
MAMMOTH LAKES  CLOUDY    39  37  93 NW3       30.10R
$$



USA.gov is the U.S. government's official web portal to all federal, state and local government web resources and services.